Location: Easthampton
(42.2676°N, 72.6690°W)
Time: 16:46:52
(UTC+00:00)

BlueWalker 3 - Pass Details

Date: 05 December 2022
Orbit: 499 x 517 km, 53.2° (Epoch: 28 January)

Event Time Altitude Azimuth Distance (km) Brightness Sun altitude
Rises 23:00:23 0° 309° (NW) 2,629 6.1 -18.3°
Reaches altitude 10° 23:02:55 10° 324° (NW) 1,736 4.9 -18.7°
Enters shadow 23:05:41 23° 8° (N) 1,115 3.5 -19.2°
